• In Hungary
  • List of Countries
  • For 7 days
  • Water Temperature
  • Satellite Maps
  • Weather Map
  • News
  • Weather Widgets
  • user-avatar
    Login

    Hourly Weather Sotnur

    Today, 21 October, Sunday

    Time Temperature Precipitation Wind Pressure Humidity
    00:00 +3°C° 0 mm 2 mps 748 mmHg 92%
    01:00 +3°C° 0 mm 2 mps 749 mmHg 93%
    02:00 +2°C° 0 mm 2 mps 749 mmHg 94%
    03:00 +2°C° 0 mm 2 mps 750 mmHg 95%
    04:00 +2°C° 0 mm 2 mps 750 mmHg 96%
    05:00 +1°C° 0 mm 2 mps 750 mmHg 96%
    06:00 +1°C° 0 mm 2 mps 751 mmHg 96%
    07:00 +2°C° 0 mm 2 mps 751 mmHg 92%
    08:00 +3°C° 0 mm 2 mps 752 mmHg 88%
    09:00 +4°C° 0 mm 2 mps 752 mmHg 82%
    10:00 +4°C° 0 mm 2 mps 752 mmHg 77%
    11:00 +5°C° 0 mm 2 mps 753 mmHg 71%
    12:00 +6°C° 0 mm 2 mps 753 mmHg 65%
    13:00 +6°C° 0 mm 2 mps 753 mmHg 65%
    14:00 +6°C° 0 mm 2 mps 753 mmHg 64%
    15:00 +6°C° 0 mm 2 mps 753 mmHg 64%
    16:00 +6°C° 0 mm 1 mps 753 mmHg 68%
    17:00 +5°C° 0 mm 1 mps 754 mmHg 73%
    18:00 +4°C° 0 mm 1 mps 754 mmHg 77%
    19:00 +4°C° 0 mm 1 mps 754 mmHg 78%
    20:00 +3°C° 0 mm 1 mps 754 mmHg 79%
    21:00 +2°C° 0 mm 0 mps 754 mmHg 81%
    22:00 +2°C° 0 mm 0 mps 754 mmHg 83%
    23:00 +1°C° 0 mm 0 mps 754 mmHg 84%

    Tomorrow, 22 October, Monday

    Time Temperature Precipitation Wind Pressure Humidity
    00:00 +1°C° 0 mm 0 mps 755 mmHg 86%
    01:00 +1°C° 0 mm 0 mps 755 mmHg 87%
    02:00 0°C° 0 mm 0 mps 755 mmHg 87%
    03:00 0°C° 0 mm 0 mps 755 mmHg 88%
    04:00 0°C° 0 mm 0 mps 755 mmHg 88%
    05:00 +1°C° 0 mm 1 mps 754 mmHg 89%
    06:00 +1°C° 0 mm 1 mps 754 mmHg 89%
    07:00 +2°C° 0 mm 1 mps 754 mmHg 85%
    08:00 +2°C° 0 mm 2 mps 754 mmHg 81%
    09:00 +3°C° 0 mm 2 mps 754 mmHg 77%
    10:00 +3°C° 0 mm 3 mps 754 mmHg 74%
    11:00 +5°C° 0 mm 3 mps 753 mmHg 70%
    12:00 +6°C° 0 mm 4 mps 753 mmHg 66%
    13:00 +6°C° 0 mm 4 mps 753 mmHg 67%
    14:00 +6°C° 0 mm 4 mps 752 mmHg 68%
    15:00 +6°C° 0 mm 4 mps 752 mmHg 70%
    16:00 +5°C° 0 mm 4 mps 751 mmHg 73%
    17:00 +4°C° 0 mm 4 mps 751 mmHg 77%
    18:00 +3°C° 0 mm 4 mps 750 mmHg 81%
    19:00 +3°C° 0 mm 4 mps 750 mmHg 81%
    20:00 +3°C° 0 mm 4 mps 749 mmHg 81%
    21:00 +3°C° 0 mm 4 mps 749 mmHg 81%
    22:00 +3°C° 0 mm 4 mps 748 mmHg 82%
    23:00 +3°C° 0 mm 4 mps 748 mmHg 84%

    Day after tomorrow, 23 October, Tuesday

    Time Temperature Precipitation Wind Pressure Humidity
    00:00 +3°C° 0 mm 4 mps 747 mmHg 86%
    01:00 +3°C° 0 mm 4 mps 747 mmHg 89%
    02:00 +3°C° 0 mm 4 mps 747 mmHg 91%
    03:00 +3°C° 0 mm 4 mps 746 mmHg 94%
    04:00 +4°C° 0 mm 4 mps 746 mmHg 93%
    05:00 +3°C° 0 mm 5 mps 745 mmHg 92%
    06:00 +5°C° 0 mm 5 mps 745 mmHg 92%
    07:00 +6°C° 0.1 mm 5 mps 745 mmHg 89%
    08:00 +6°C° 0.1 mm 5 mps 744 mmHg 86%
    09:00 +7°C° 0.1 mm 5 mps 744 mmHg 83%
    10:00 +7°C° 0.4 mm 5 mps 743 mmHg 82%
    11:00 +7°C° 0.4 mm 6 mps 743 mmHg 81%
    12:00 +7°C° 0.4 mm 6 mps 742 mmHg 80%
    13:00 +5°C° 1 mm 6 mps 742 mmHg 82%
    14:00 +5°C° 1 mm 6 mps 741 mmHg 84%
    15:00 +5°C° 1 mm 6 mps 741 mmHg 86%
    16:00 +5°C° 0.9 mm 6 mps 740 mmHg 87%
    17:00 +5°C° 0.9 mm 6 mps 740 mmHg 88%
    18:00 +5°C° 0.9 mm 6 mps 739 mmHg 89%
    19:00 +5°C° 1.1 mm 6 mps 738 mmHg 89%
    20:00 +6°C° 1.1 mm 5 mps 738 mmHg 89%
    21:00 +6°C° 1.1 mm 5 mps 737 mmHg 89%
    22:00 +6°C° 0.2 mm 5 mps 737 mmHg 90%
    23:00 +6°C° 0.2 mm 4 mps 736 mmHg 91%

    24 October, Wednesday

    Time Temperature Precipitation Wind Pressure Humidity
    00:00 +6°C° 0.2 mm 4 mps 736 mmHg 91%
    01:00 +6°C° 0.7 mm 4 mps 736 mmHg 93%
    02:00 +7°C° 0.7 mm 3 mps 735 mmHg 94%
    03:00 +7°C° 0.7 mm 3 mps 735 mmHg 95%
    04:00 +7°C° 0 mm 3 mps 735 mmHg 95%
    05:00 +5°C° 0 mm 3 mps 735 mmHg 95%
    06:00 +5°C° 0 mm 3 mps 735 mmHg 94%
    07:00 +5°C° 0 mm 3 mps 736 mmHg 90%
    08:00 +5°C° 0 mm 4 mps 736 mmHg 85%
    09:00 +5°C° 0 mm 4 mps 736 mmHg 81%
    10:00 +6°C° 0 mm 4 mps 736 mmHg 76%
    11:00 +7°C° 0 mm 4 mps 736 mmHg 71%
    12:00 +8°C° 0 mm 5 mps 736 mmHg 66%
    13:00 +8°C° 0 mm 4 mps 736 mmHg 67%
    14:00 +7°C° 0 mm 4 mps 736 mmHg 68%
    15:00 +7°C° 0 mm 4 mps 736 mmHg 69%
    16:00 +7°C° 0 mm 4 mps 736 mmHg 72%
    17:00 +6°C° 0 mm 4 mps 736 mmHg 74%
    18:00 +6°C° 0 mm 4 mps 736 mmHg 77%
    19:00 +6°C° 0 mm 4 mps 737 mmHg 78%
    20:00 +5°C° 0 mm 3 mps 737 mmHg 78%
    21:00 +5°C° 0 mm 3 mps 737 mmHg 79%
    22:00 +5°C° 0 mm 3 mps 737 mmHg 79%
    23:00 +5°C° 0 mm 4 mps 737 mmHg 79%

    25 October, Thursday

    Time Temperature Precipitation Wind Pressure Humidity
    00:00 +5°C° 0 mm 4 mps 737 mmHg 79%
    01:00 +5°C° 0 mm 4 mps 737 mmHg 80%
    02:00 +5°C° 0 mm 4 mps 736 mmHg 82%
    03:00 +5°C° 0 mm 4 mps 736 mmHg 83%
    04:00 +5°C° 0 mm 5 mps 736 mmHg 85%
    05:00 +5°C° 0 mm 5 mps 736 mmHg 86%
    06:00 +6°C° 0 mm 5 mps 735 mmHg 87%
    07:00 +5°C° 0.3 mm 6 mps 735 mmHg 87%
    08:00 +7°C° 0.3 mm 6 mps 735 mmHg 88%
    09:00 +8°C° 0.3 mm 6 mps 735 mmHg 88%
    10:00 +8°C° 1 mm 7 mps 734 mmHg 88%
    11:00 +8°C° 1 mm 7 mps 734 mmHg 88%
    12:00 +8°C° 1 mm 7 mps 734 mmHg 88%
    13:00 +8°C° 1.3 mm 7 mps 733 mmHg 87%
    14:00 +8°C° 1.3 mm 6 mps 733 mmHg 85%
    15:00 +9°C° 1.3 mm 6 mps 732 mmHg 83%
    16:00 +9°C° 0.1 mm 5 mps 732 mmHg 80%
    17:00 +9°C° 0.1 mm 5 mps 732 mmHg 76%
    18:00 +9°C° 0.1 mm 5 mps 731 mmHg 73%
    19:00 +9°C° 0 mm 5 mps 731 mmHg 72%
    20:00 +9°C° 0 mm 5 mps 730 mmHg 71%
    21:00 +9°C° 0 mm 6 mps 730 mmHg 70%
    22:00 +9°C° 0 mm 6 mps 729 mmHg 69%
    23:00 +10°C° 0 mm 6 mps 729 mmHg 68%

    26 October, Friday

    Time Temperature Precipitation Wind Pressure Humidity
    00:00 +10°C° 0 mm 6 mps 728 mmHg 67%
    01:00 +9°C° 0.5 mm 5 mps 728 mmHg 73%
    02:00 +9°C° 0.5 mm 5 mps 728 mmHg 78%
    03:00 +8°C° 0.5 mm 5 mps 728 mmHg 83%
    04:00 +8°C° 0.7 mm 5 mps 728 mmHg 83%
    05:00 +7°C° 0.7 mm 4 mps 729 mmHg 83%
    06:00 +6°C° 0.7 mm 4 mps 729 mmHg 83%
    07:00 +6°C° 0.2 mm 4 mps 729 mmHg 81%
    08:00 +5°C° 0.2 mm 5 mps 729 mmHg 80%
    09:00 +5°C° 0.2 mm 5 mps 730 mmHg 78%
    10:00 +5°C° 0 mm 5 mps 730 mmHg 75%
    11:00 +5°C° 0 mm 6 mps 731 mmHg 72%
    12:00 +5°C° 0 mm 7 mps 731 mmHg 69%
    13:00 +5°C° 0 mm 6 mps 731 mmHg 69%
    14:00 +5°C° 0 mm 6 mps 732 mmHg 68%
    15:00 +5°C° 0 mm 6 mps 732 mmHg 67%
    16:00 +4°C° 0 mm 6 mps 733 mmHg 68%
    17:00 +4°C° 0 mm 6 mps 733 mmHg 69%
    18:00 +3°C° 0 mm 6 mps 734 mmHg 71%
    19:00 +3°C° 0 mm 5 mps 734 mmHg 73%
    20:00 +2°C° 0 mm 5 mps 734 mmHg 75%
    21:00 +2°C° 0 mm 5 mps 734 mmHg 77%
    22:00 +2°C° 0 mm 5 mps 734 mmHg 79%
    23:00 +2°C° 0 mm 5 mps 735 mmHg 80%
    Show more